Radiation Dose at Monitoring Post of Fukushima Daini Nuclear Power Station
Date,Time,MP-1(microSv/h),MP-2(microSv/h),MP-3(microSv/h),MP-4(microSv/h),MP-5(microSv/h),MP-6(microSv/h),MP-7(microSv/h),Wind Direction,Wind Velocity(m/s),Rain
2016/03/17,00:00,0.459,0.264,0.475,0.422,0.396,0.216,0.187,west-northwest,3.2,No
2016/03/17,00:10,0.462,0.262,0.473,0.422,0.395,0.216,0.187,west-northwest,2.6,No
2016/03/17,00:20,0.459,0.262,0.475,0.424,0.395,0.215,0.187,southwest,0.5,No
2016/03/17,00:30,0.460,0.264,0.474,0.422,0.395,0.215,0.187,northeast,0.6,No
2016/03/17,00:40,0.462,0.262,0.474,0.423,0.395,0.215,0.187,east,0.7,No
2016/03/17,00:50,0.459,0.264,0.474,0.423,0.395,0.215,0.186,east-southeast,0.9,No
2016/03/17,01:00,0.460,0.265,0.474,0.421,0.395,0.215,0.187,south,0.8,No
2016/03/17,01:10,0.463,0.263,0.474,0.423,0.396,0.214,0.187,west-southwest,0.8,No
2016/03/17,01:20,0.459,0.264,0.475,0.423,0.395,0.214,0.188,north,1.6,No
2016/03/17,01:30,0.460,0.263,0.474,0.421,0.393,0.215,0.187,east-northeast,1.0,No
2016/03/17,01:40,0.461,0.263,0.473,0.423,0.395,0.216,0.187,north-northeast,0.5,No
2016/03/17,01:50,0.458,0.264,0.475,0.423,0.396,0.215,0.188,north,2.2,No
2016/03/17,02:00,0.460,0.263,0.474,0.421,0.394,0.214,0.187,north-northwest,3.1,No
2016/03/17,02:10,0.462,0.263,0.474,0.423,0.395,0.215,0.186,northwest,2.6,No
2016/03/17,02:20,0.459,0.264,0.475,0.422,0.395,0.215,0.187,north,2.5,No
2016/03/17,02:30,0.461,0.263,0.474,0.422,0.394,0.213,0.186,north-northwest,1.8,No
2016/03/17,02:40,0.462,0.264,0.474,0.423,0.395,0.214,0.188,north,2.5,No
2016/03/17,02:50,0.458,0.262,0.474,0.421,0.395,0.214,0.186,northeast,1.9,No
2016/03/17,03:00,0.462,0.263,0.473,0.422,0.395,0.216,0.187,northeast,2.4,No
2016/03/17,03:10,0.462,0.266,0.474,0.424,0.396,0.216,0.187,northeast,3.1,No
2016/03/17,03:20,0.459,0.262,0.474,0.422,0.394,0.215,0.188,northeast,1.7,No
2016/03/17,03:30,0.460,0.262,0.474,0.421,0.394,0.215,0.186,north-northeast,3.2,No
2016/03/17,03:40,0.461,0.263,0.473,0.423,0.394,0.215,0.187,northeast,3.9,No
2016/03/17,03:50,0.458,0.264,0.473,0.420,0.393,0.214,0.188,north-northeast,4.0,No
2016/03/17,04:00,0.462,0.264,0.473,0.422,0.395,0.214,0.188,northeast,4.8,No
2016/03/17,04:10,0.460,0.262,0.474,0.424,0.395,0.215,0.187,north-northeast,2.9,No
2016/03/17,04:20,0.459,0.264,0.475,0.422,0.394,0.216,0.187,north,0.8,No
2016/03/17,04:30,0.462,0.264,0.472,0.420,0.395,0.215,0.187,northeast,3.6,No
2016/03/17,04:40,0.458,0.263,0.473,0.423,0.395,0.214,0.186,north,3.0,No
2016/03/17,04:50,0.459,0.264,0.474,0.421,0.394,0.215,0.187,northeast,3.4,No
2016/03/17,05:00,0.460,0.263,0.472,0.422,0.396,0.216,0.187,north-northeast,2.2,No
2016/03/17,05:10,0.459,0.262,0.475,0.422,0.394,0.214,0.186,north-northwest,2.2,No
2016/03/17,05:20,0.462,0.263,0.473,0.421,0.394,0.216,0.188,north-northeast,1.6,No
2016/03/17,05:30,0.461,0.263,0.472,0.421,0.397,0.214,0.187,south,0.6,No
2016/03/17,05:40,0.460,0.262,0.476,0.424,0.394,0.215,0.186,north,2.3,No
2016/03/17,05:50,0.464,0.264,0.473,0.420,0.395,0.215,0.187,north,3.8,No
2016/03/17,06:00,0.461,0.264,0.473,0.423,0.395,0.215,0.188,north,2.7,No
2016/03/17,06:10,0.459,0.263,0.475,0.423,0.395,0.214,0.187,-,CALM,No
2016/03/17,06:20,0.463,0.262,0.473,0.421,0.394,0.215,0.188,northwest,0.8,No
2016/03/17,06:30,0.461,0.263,0.474,0.423,0.395,0.215,0.186,west,4.2,No
2016/03/17,06:40,0.458,0.262,0.475,0.423,0.394,0.214,0.187,west,6.2,No
2016/03/17,06:50,0.462,0.263,0.473,0.422,0.392,0.215,0.187,west,5.3,No
2016/03/17,07:00,0.461,0.263,0.473,0.423,0.395,0.214,0.185,west,3.8,No
2016/03/17,07:10,0.460,0.264,0.474,0.421,0.394,0.215,0.186,west-southwest,3.9,No
2016/03/17,07:20,0.461,0.263,0.472,0.419,0.394,0.215,0.186,west,3.7,No
2016/03/17,07:30,0.460,0.263,0.475,0.422,0.394,0.215,0.187,west,2.5,No
2016/03/17,07:40,0.461,0.264,0.473,0.420,0.393,0.216,0.186,west-southwest,2.7,No
2016/03/17,07:50,0.461,0.262,0.473,0.423,0.396,0.215,0.187,west,3.7,No
2016/03/17,08:00,0.459,0.263,0.474,0.418,0.395,0.215,0.185,west-northwest,1.6,No
2016/03/17,08:10,0.461,0.262,0.471,0.419,0.397,0.215,0.187,west-northwest,2.2,No
2016/03/17,08:20,0.459,0.263,0.477,0.421,0.395,0.214,0.186,northwest,4.3,No
2016/03/17,08:30,0.462,0.262,0.471,0.416,0.395,0.216,0.184,west-northwest,6.7,No
2016/03/17,08:40,0.459,0.262,0.475,0.421,0.394,0.215,0.187,northwest,6.4,No
2016/03/17,08:50,0.460,0.263,0.473,0.419,0.395,0.216,0.186,northwest,6.3,No
2016/03/17,09:00,0.458,0.262,0.473,0.422,0.397,0.214,0.185,northwest,6.2,No
2016/03/17,09:10,0.462,0.264,0.474,0.422,0.394,0.215,0.188,northwest,3.3,No
2016/03/17,09:20,0.460,0.262,0.475,0.416,0.397,0.213,0.186,west,2.7,No
2016/03/17,09:30,0.462,0.264,0.474,0.421,0.393,0.215,0.185,west-southwest,3.9,No
2016/03/17,09:40,0.455,0.263,0.472,0.423,0.391,0.214,0.186,west,5.3,No
2016/03/17,09:50,0.458,0.261,0.474,0.419,0.396,0.214,0.186,west,4.5,No
2016/03/17,10:00,0.457,0.264,0.472,0.416,0.394,0.215,0.186,west-northwest,5.3,No
2016/03/17,10:10,0.454,0.263,0.464,0.415,0.389,0.214,0.184,west,5.8,No
2016/03/17,10:20,0.452,0.261,0.464,0.416,0.388,0.214,0.185,west,6.7,No
2016/03/17,10:30,0.459,0.264,0.479,0.425,0.397,0.215,0.187,west,6.3,No
2016/03/17,10:40,0.459,0.263,0.474,0.424,0.396,0.214,0.187,west-northwest,6.5,No
2016/03/17,10:50,0.455,0.261,0.478,0.419,0.391,0.216,0.186,northwest,5.5,No
2016/03/17,11:00,0.451,0.265,0.477,0.417,0.396,0.214,0.186,northwest,5.3,No
2016/03/17,11:10,0.454,0.263,0.470,0.417,0.398,0.215,0.188,west-northwest,4.4,No
2016/03/17,11:20,-,0.261,0.474,0.423,0.395,0.214,0.187,west-northwest,4.1,No
2016/03/17,11:30,0.458,0.263,0.475,0.424,0.392,0.214,0.186,west,5.2,No
2016/03/17,11:40,0.457,0.263,0.470,0.420,0.397,0.216,0.187,west-northwest,5.1,No
2016/03/17,11:50,0.462,0.261,0.467,0.418,0.396,0.215,0.187,west-northwest,4.5,No
2016/03/17,12:00,0.463,0.265,0.472,0.419,0.396,0.215,0.188,west,6.2,No
2016/03/17,12:10,0.458,0.264,0.476,0.421,0.393,0.215,0.187,west-northwest,3.6,No
2016/03/17,12:20,0.456,0.261,0.471,0.425,0.397,0.215,0.187,west,3.1,No
2016/03/17,12:30,0.464,0.265,0.469,0.422,0.396,0.215,0.188,west-southwest,3.6,No
2016/03/17,12:40,0.460,0.263,0.470,0.420,0.394,0.215,0.186,east-northeast,4.4,No
2016/03/17,12:50,0.459,0.262,0.476,0.418,0.393,0.216,0.188,east,5.2,No
2016/03/17,13:00,0.465,0.264,0.474,0.422,0.399,0.215,0.188,southeast,4.2,No
2016/03/17,13:10,0.459,0.262,0.472,0.427,0.395,0.214,0.188,south-southeast,4.8,No
2016/03/17,13:20,0.462,0.264,0.472,0.423,0.395,0.215,0.188,south,7.2,No
2016/03/17,13:30,0.463,0.264,0.477,0.424,0.399,0.215,0.188,south,9.5,No
2016/03/17,13:40,0.460,0.261,0.473,0.427,0.394,0.215,0.188,south,10.0,No
2016/03/17,13:50,0.467,0.264,0.470,0.424,0.396,0.216,0.187,south-southeast,8.0,No
2016/03/17,14:00,0.461,-,0.478,0.425,0.398,0.215,0.189,south-southeast,9.4,No
2016/03/17,14:10,0.463,0.255,0.475,0.425,0.394,0.215,0.187,south-southeast,9.2,No
2016/03/17,14:20,0.462,0.265,0.471,0.424,0.400,0.215,0.189,south,8.8,No
2016/03/17,14:30,0.460,0.263,0.480,0.428,0.396,0.217,0.188,south,8.1,No
2016/03/17,14:40,0.464,0.266,0.474,0.424,0.396,0.215,0.189,south,9.3,No
2016/03/17,14:50,0.459,0.263,0.469,0.427,0.398,0.215,0.188,south,10.1,No
2016/03/17,15:00,0.461,0.265,0.464,0.422,0.394,0.215,0.189,south,9.9,No
2016/03/17,15:10,0.462,0.264,-,0.426,0.399,0.216,0.188,south,10.4,No
2016/03/17,15:20,0.461,0.265,0.475,0.424,0.396,0.215,0.189,south,8.6,No
2016/03/17,15:30,0.463,0.264,0.480,0.427,0.401,0.215,0.189,south-southeast,7.4,No
2016/03/17,15:40,0.460,0.266,0.476,0.420,0.396,0.216,0.189,south,8.5,No
2016/03/17,15:50,0.463,0.264,0.483,0.424,0.399,0.216,0.189,south,10.1,No
2016/03/17,16:00,0.461,0.263,0.477,0.419,0.396,0.216,0.189,south,9.6,No
2016/03/17,16:10,0.465,0.265,0.481,-,0.399,0.215,0.189,south,10.1,No
2016/03/17,16:20,0.463,0.264,0.475,0.425,0.395,0.216,0.189,south,10.9,No
2016/03/17,16:30,0.463,0.265,0.479,0.429,0.396,0.216,0.188,south,12.3,No
2016/03/17,16:40,0.463,0.264,0.477,0.426,0.390,0.216,0.189,south,13.7,No
2016/03/17,16:50,0.462,0.264,0.477,0.424,0.386,0.216,0.188,south,11.3,No
2016/03/17,17:00,0.465,0.264,0.479,0.426,-,0.216,0.188,south,12.0,No
2016/03/17,17:10,0.459,0.264,0.475,0.424,0.399,0.217,0.188,south,12.1,No
2016/03/17,17:20,0.464,0.265,0.479,0.426,0.402,0.214,0.188,south,10.9,No
2016/03/17,17:30,0.461,0.264,0.475,0.426,0.399,0.214,0.189,south,11.5,No
2016/03/17,17:40,0.461,0.263,0.476,0.424,0.396,0.213,0.189,south,10.1,No
2016/03/17,17:50,0.464,0.264,0.478,0.426,0.402,0.209,0.189,south,10.3,No
2016/03/17,18:00,0.460,0.265,0.476,0.426,0.398,0.216,0.189,south-southwest,10.7,No
2016/03/17,18:10,0.465,0.263,0.479,0.424,0.397,0.216,0.188,south-southwest,10.8,No
2016/03/17,18:20,0.463,0.264,0.476,0.427,0.397,0.216,0.189,south-southwest,10.2,No
2016/03/17,18:30,0.460,0.264,0.479,0.425,0.396,0.216,0.187,south-southwest,9.8,No
2016/03/17,18:40,0.463,0.264,0.478,0.424,0.394,0.216,0.186,south-southwest,9.9,No
2016/03/17,18:50,0.463,0.264,0.475,0.426,0.396,0.216,0.184,south-southwest,10.0,No
2016/03/17,19:00,0.462,0.264,0.480,0.424,0.397,0.215,0.189,south-southwest,10.1,No
2016/03/17,19:10,0.462,0.264,0.476,0.425,0.396,0.215,0.189,south-southwest,10.7,No
2016/03/17,19:20,0.461,0.264,0.476,0.426,0.395,0.216,0.189,south-southwest,10.3,No
2016/03/17,19:30,0.463,0.265,0.478,0.425,0.394,0.216,0.189,south-southwest,10.2,No
2016/03/17,19:40,0.461,0.264,0.475,0.425,0.398,0.216,0.190,south-southwest,9.8,No
2016/03/17,19:50,0.460,0.264,0.478,0.426,0.396,0.216,0.188,south-southwest,9.8,No
2016/03/17,20:00,0.463,0.264,0.476,0.425,0.394,0.216,0.189,south-southwest,9.8,No
2016/03/17,20:10,0.461,0.263,0.475,0.426,0.397,0.216,0.189,south-southwest,9.7,No
2016/03/17,20:20,0.461,0.264,0.478,0.423,0.396,0.215,0.189,south-southwest,8.9,No
2016/03/17,20:30,0.464,0.263,0.475,0.425,0.395,0.216,0.190,south-southwest,7.9,No
2016/03/17,20:40,0.461,0.264,0.476,0.425,0.396,0.216,0.189,south-southwest,8.3,No
2016/03/17,20:50,0.462,0.263,0.477,0.423,0.396,0.217,0.188,south-southwest,8.4,No
2016/03/17,21:00,0.463,0.264,0.475,0.425,0.394,0.216,0.189,south-southwest,8.2,No
2016/03/17,21:10,0.461,0.263,0.480,0.426,0.396,0.217,0.189,south-southwest,8.4,No
2016/03/17,21:20,0.461,0.264,0.476,0.424,0.396,0.216,0.190,south-southwest,8.6,No
2016/03/17,21:30,0.464,0.264,0.477,0.426,0.395,0.217,0.188,south-southwest,9.4,No
2016/03/17,21:40,0.460,0.264,0.478,0.425,0.397,0.215,0.188,south-southwest,9.8,No
2016/03/17,21:50,0.463,0.264,0.477,0.424,0.395,0.216,0.189,south-southwest,9.4,No
2016/03/17,22:00,0.464,0.264,0.476,0.427,0.394,0.216,0.189,south-southwest,8.8,No
2016/03/17,22:10,0.462,0.264,0.480,0.423,0.396,0.216,0.189,south-southwest,9.2,No
2016/03/17,22:20,0.464,0.265,0.475,0.424,0.394,0.216,0.189,south-southwest,10.1,No
2016/03/17,22:30,0.463,0.263,0.477,0.427,0.395,0.216,0.189,south-southwest,11.2,No
2016/03/17,22:40,0.461,0.263,0.476,0.426,0.394,0.216,0.188,south-southwest,10.5,No
2016/03/17,22:50,0.463,0.263,0.475,0.425,0.394,0.215,0.188,south-southwest,10.8,No
2016/03/17,23:00,0.463,0.264,0.479,0.426,0.395,0.217,0.189,south-southwest,11.0,No
2016/03/17,23:10,0.461,0.264,0.476,0.425,0.396,0.217,0.189,south-southwest,10.3,No
2016/03/17,23:20,0.463,0.263,0.478,0.425,0.396,0.216,0.188,south-southwest,9.1,No
2016/03/17,23:30,0.462,0.264,0.478,0.426,0.397,0.215,0.189,south-southwest,8.6,No
2016/03/17,23:40,0.460,0.265,0.474,0.424,0.397,0.216,0.189,south-southwest,8.2,No
2016/03/17,23:50,0.463,0.264,0.478,0.425,0.393,0.216,0.189,south-southwest,8.9,No
